Tracking 18980 objects as of 19-Feb-2018
HD Live streaming from Space Station
objects crossing your sky now

FENGYUN 1C DEB

Track FENGYUN 1C DEB now!
10-day predictions


NORAD ID: 30720
Int'l Code: 1999-025ASE
Perigee: 805.8 km
Apogee: 854.4 km
Inclination: 98.9 °
Period: 101.4 minutes
Semi major axis: 7201 km
RCS: 0.0072 m2 (small)
Launch date: May 10, 1999
Source: People's Republic of China (PRC)
Launch site: Taiyaun Space Center, China (TSC)

Note: This is SATELLITE DEBRIS
aabbcc
Your satellite tracking list
Your tracking list is empty




NASA's NSSDC Master Catalog

Two Line Element Set (TLE):
1 30720U 99025ASE 18050.22922997  .00000486  00000-0  24525-3 0  9992
2 30720  98.8614 146.6186 0033774 255.8627 132.5614 14.20705649569595
Source of the keplerian elements: AFSPC